Location: WHS+Essen
(51.3947°N, 6.9794°E)
Time: 20:22:57
(UTC+02:00)

ISS - Pass Details

Date: 26 May 2019
Orbit: 408 x 418 km, 51.6° (Epoch: 25 June)

Event Time Altitude Azimuth Distance (km) Brightness Sun altitude
Rises 22:30:24 0° 272° (W) 2,354 0.8 -7.5°
Reaches altitude 10° 22:32:30 10° 273° (W) 1,494 -0.3 -7.8°
Maximum altitude 22:35:51 84° 1° (N) 425 -3.7 -8.1°
Drops below altitude 10° 22:39:13 10° 91° (E) 1,500 -1.3 -8.4°
Enters shadow 22:40:37 - 92° (E) 2,069 -0.6 -8.6°
